CAPE
2 1 1 0 0 0 0 0 0 0 0 0 0 0 0 0 0 0 0 0 0 0 0 0 0 0 0 0 0 0 0 0 0 0 0 0 0 0 0 0 0 0 0 0
2 2 0 0 0 0 0 0 0 0 0 0 0 0 0 0 0 0 0 0 0 0 0 0 0 0 0 0 0 0 0 0 0 0 0 0 0 0 0 0 0 0 0 0
2 2 0 0 0 0 0 0 0 0 0 0 0 0 0 0 0 0 0 0 0 0 0 0 0 0 0 0 0 0 0 0 0 0 0 0 0 0 0 0 0 0 0 0
2 2 1 0 0 0 0 0 0 0 0 0 0 0 0 0 0 0 0 0 0 0 0 0 0 0 0 0 0 0 0 0 0 0 0 0 0 14 0 0 23 11 112 13
3 2 2 0 0 0 0 0 0 0 0 0 0 0 0 0 0 0 0 0 0 0 0 0 0 0 0 0 0 0 0 0 0 0 0 0 0 0 2 0 0 0 7 63
4 2 1 0 0 0 0 0 0 0 0 0 0 0 0 0 0 0 0 0 0 0 0 0 0 0 0 0 0 0 0 0 0 0 2 12 0 0 5 90 126 141 78 255
5 4 2 1 0 0 0 0 0 0 0 0 0 0 0 0 0 0 0 0 0 0 0 0 0 0 0 0 0 0 0 0 0 0 0 0 0 0 94 200 454 317 615 403
5 3 5 2 0 0 0 0 0 0 0 0 0 0 0 0 0 0 0 0 0 0 0 0 0 0 0 0 0 0 0 0 13 0 0 0 48 380 773 647 574 743 469 309
2 1 1 4 1 0 0 0 0 0 0 0 0 0 0 0 0 0 0 0 0 0 0 0 0 0 0 0 0 0 0 0 0 0 0 0 13 629 891 834 75 405 488 449
1 4 6 2 2 0 0 0 0 0 0 0 0 0 0 0 0 0 0 0 0 0 0 0 0 0 0 0 0 0 0 0 0 0 97 26 0 641 658 60 32 569 497 531
3 6 5 5 4 2 0 0 0 0 0 0 0 0 0 0 0 0 0 0 0 0 0 0 0 0 0 0 0 0 0 0 0 0 0 4 215 664 255 484 1105 965 883 696
7 7 3 6 5 3 0 0 0 0 0 0 0 0 0 0 0 0 0 0 0 0 0 0 0 0 1 0 0 0 0 0 0 0 0 0 373 552 635 721 904 807 867 559
9 2 1 0 1 3 3 0 0 0 0 0 0 0 0 0 0 0 0 0 0 0 0 0 0 0 0 26 28 23 15 54 60 21 18 72 414 624 459 623 970 782 760 556
3 1 3 2 4 3 4 1 0 0 0 0 0 0 0 0 0 0 0 0 0 0 0 0 0 0 0 1 6 5 21 48 87 61 62 96 282 431 426 587 432 401 494 333
7 1 2 3 4 4 0 0 0 0 0 0 0 0 0 0 0 0 0 0 0 0 0 0 0 0 0 0 0 4 18 73 60 67 88 164 160 137 218 498 383 186 220 73
4 5 5 3 0 3 0 0 0 0 0 0 0 0 0 0 0 0 0 0 0 0 0 0 0 0 1 11 35 0 15 1 41 102 76 165 169 264 206 118 153 156 123 7
3 3 2 0 0 0 0 0 0 0 0 0 0 0 0 0 0 0 0 0 0 0 0 0 0 0 0 1 1 8 0 0 0 14 70 187 181 137 208 221 104 19 3 0
1 0 0 0 0 0 0 0 0 0 0 0 0 0 0 0 3 9 0 0 0 0 0 0 0 0 17 0 1 0 0 0 0 0 32 37 22 130 144 116 113 104 72 2
0 0 0 0 0 0 0 0 0 0 0 0 0 0 4 0 0 0 10 0 0 0 0 0 0 0 5 2 0 0 6 0 0 0 21 75 42 54 108 126 44 70 73 31
0 0 0 0 0 0 0 0 0 0 1 0 0 0 0 0 0 0 0 0 2 0 0 0 0 0 4 33 16 0 0 7 7 0 67 85 0 10 66 91 252 222 166 54
0 0 1 0 0 1 2 1 0 0 0 0 0 0 0 0 1 2 0 0 2 9 0 0 1 0 24 0 11 2 2 0 0 11 1 0 0 0 0 77 296 276 211 98
0 1 0 0 0 2 1 0 0 0 6 12 7 10 0 0 0 4 0 0 1 5 0 1 1 3 25 1 2 3 3 0 0 3 21 2 0 0 0 4 238 327 206 71
1 0 0 0 0 0 0 0 2 4 14 23 27 3 6 1 0 4 0 0 3 0 0 15 16 15 5 0 0 0 0 0 0 0 15 27 6 0 0 2 88 234 146 60
0 0 0 0 0 0 0 3 2 2 8 12 0 2 0 0 4 10 2 5 0 3 2 6 2 0 0 0 0 0 0 0 0 0 0 17 36 0 0 1 44 66 131 64
0 0 0 0 0 0 0 0 0 0 0 0 0 0 0 0 1 6 5 11 2 7 0 1 3 2 0 0 1 1 0 1 0 0 0 19 26 35 68 113 185 221 169 82
0 0 0 0 0 0 0 2 1 1 3 0 0 0 0 1 1 5 6 13 6 2 3 3 0 1 0 2 2 1 2 2 2 1 5 39 110 83 93 116 121 119 101 48
0 0 0 0 0 0 0 3 3 0 4 0 4 1 0 0 1 3 1 12 0 1 0 0 2 1 1 3 2 1 2 1 2 3 12 11 21 49 39 12 9 10 15 3
CIN
0 0 0 0 0 0 0 0 0 0 0 0 0 0 0 0 0 0 0 0 0 0 0 0 0 0 0 0 0 0 0 0 0 0 0 0 0 0 0 0 0 0 0 0
0 0 0 0 0 0 0 0 0 0 0 0 0 0 0 0 0 0 0 0 0 0 0 0 0 0 0 0 0 0 0 0 0 0 0 0 0 0 0 0 0 0 0 0
0 0 0 0 0 0 0 0 0 0 0 0 0 0 0 0 0 0 0 0 0 0 0 0 0 0 0 0 0 0 0 0 0 0 0 0 0 0 0 0 0 0 0 0
0 0 0 0 0 0 0 0 0 0 0 0 0 0 0 0 0 0 0 0 0 0 0 0 0 0 0 0 0 0 0 0 0 0 0 0 0 -41 0 0 -41 -20 -24 -43
0 0 0 0 0 0 0 0 0 0 0 0 0 0 0 0 0 0 0 0 0 0 0 0 0 0 0 0 0 0 0 0 0 0 0 0 0 0 -39 0 0 -16 -80 -58
0 -1 0 0 0 0 0 0 0 0 0 0 0 0 0 0 0 0 0 0 0 0 0 0 0 0 0 0 0 0 0 -15 0 0 -25 -68 0 -15 -33 -45 -55 -31 -25 -26
0 -1 0 0 0 0 0 0 0 0 0 0 0 0 0 0 0 0 0 0 0 0 0 0 0 0 0 0 0 0 0 0 0 0 0 0 0 0 -112 -63 -45 -70 -59 -71
-1 -1 -1 0 0 0 0 0 0 0 0 0 0 0 0 0 0 0 0 0 0 0 0 0 0 0 0 0 0 0 0 0 -46 0 0 0 -59 -79 -60 -38 -29 -91 -74 -151
-1 -1 0 0 0 0 0 0 0 0 0 0 0 0 0 0 0 0 0 0 0 0 0 0 0 0 0 0 0 0 0 0 0 -1 0 0 -52 -128 -209 -168 -24 -109 -131 -135
0 -1 0 -1 0 -1 0 0 0 0 0 0 0 0 0 0 0 0 0 0 0 0 0 0 0 0 0 0 0 0 0 0 0 0 -10 -49 0 -210 -246 -31 -29 -162 -163 -177
-1 -1 0 -1 0 -1 0 0 0 0 0 0 0 0 0 0 0 0 0 0 0 0 0 0 0 0 0 0 0 0 0 0 0 0 0 -9 -222 -146 -61 -186 -222 -234 -255 -294
-1 0 0 -1 0 0 0 0 0 0 0 0 0 0 0 0 0 0 0 0 0 0 0 0 0 0 -65 0 0 0 0 0 0 0 0 0 -268 -224 -273 -290 -275 -257 -291 -356
-2 0 0 -1 0 -2 -1 0 0 0 0 0 0 0 0 0 0 0 0 0 0 0 0 0 0 0 0 -25 -32 -75 -130 -169 -85 -77 -101 -145 -211 -215 -269 -268 -234 -276 -281 -316
-1 0 -1 -1 -1 -2 -1 0 0 0 0 0 0 0 0 0 0 0 0 0 0 0 0 0 0 0 0 -23 -54 -53 -42 -141 -83 -60 -87 -134 -137 -183 -220 -217 -280 -308 -303 -342
0 -1 0 0 0 -1 0 0 0 0 0 0 0 0 0 0 0 0 0 0 0 0 0 0 0 0 0 0 0 -99 -144 -91 -26 -10 -114 -102 -105 -172 -201 -163 -213 -289 -298 -387
0 0 0 0 0 -2 0 0 0 0 0 0 0 0 0 0 0 0 0 0 0 0 0 0 0 0 -69 -40 -24 -1 -142 -5 -104 -90 -154 -130 -148 -126 -146 -169 -194 -227 -253 -376
0 0 0 0 0 -1 0 0 0 0 0 0 0 0 0 0 0 0 0 0 0 0 0 0 0 0 0 -9 -6 -53 0 0 0 -110 -90 -38 -96 -127 -119 -109 -170 -264 -116 0
0 0 0 0 0 0 0 0 0 0 0 0 0 0 0 0 -15 -13 0 0 0 0 0 0 0 0 -19 -1 -3 0 0 0 0 0 -86 -67 -134 -109 -110 -139 -124 -132 -182 -75
0 0 0 0 0 -3 0 0 0 0 0 0 0 0 -7 0 0 0 -63 0 0 0 0 0 0 0 -4 -13 0 0 -116 0 0 0 -129 -68 -101 -108 -100 -102 -151 -101 -130 -184
0 0 0 -1 0 0 0 0 0 0 0 0 0 0 0 0 0 -1 -2 0 -12 -2 0 0 0 0 -9 -58 -95 0 0 -143 -158 0 -46 -39 0 -107 -105 -88 -79 -86 -97 -140
0 0 -8 0 0 -12 -27 -7 0 0 0 0 0 0 0 0 -8 -20 0 0 -8 -4 0 0 -1 0 -25 0 -138 -51 -174 0 0 -150 -153 0 0 0 0 -74 -45 -72 -94 -124
0 0 0 0 0 -19 -6 -2 0 -3 -8 -25 -13 -28 0 0 0 -5 0 0 -7 -6 -14 -5 -3 -13 -35 -72 -97 -173 -212 0 0 -187 -151 -61 0 0 0 -78 -43 -56 -68 -106
0 0 0 0 0 0 0 0 -1 -1 -8 -5 -9 -16 -29 -16 -10 -8 -5 0 -5 0 -3 -5 -7 -3 -70 -9 0 -32 0 0 0 0 -176 -155 -130 0 0 -76 -75 -74 -80 -92
0 0 0 0 0 0 0 -7 -8 -1 -5 -10 -24 -29 0 0 -8 -6 0 -2 -1 -9 -4 0 0 0 0 0 0 0 0 0 0 0 0 -161 -156 0 0 -12 -107 -116 -108 -103
0 0 0 0 0 0 0 0 0 0 0 0 0 0 0 0 -3 -8 -9 -3 -1 -2 0 0 -1 -2 0 0 0 0 0 0 0 0 0 -213 -194 -173 -130 -148 -136 -118 -100 -109
0 0 0 0 0 0 0 -20 -18 -48 -43 0 0 0 0 -3 -10 -9 -5 -3 0 0 0 -2 -1 0 0 0 0 0 0 0 0 0 -247 -228 -196 -202 -189 -207 -162 -159 -136 -107
0 0 0 0 0 0 0 -39 -34 0 -25 0 -17 -4 0 -4 -9 -6 -16 -1 -1 0 0 0 0 0 0 0 0 0 0 0 0 0 -192 -215 -232 -215 -201 -194 -184 -172 -173 -4
Wind_Speed
30 30 30 31 31 30 19 17 19 15 16 17 22 25 23 22 24 21 20 20 20 19 18 18 18 18 17 15 13 11 13 17 22 21 18 15 15 14 11 17 16 15 18 18
29 29 30 30 31 27 19 16 16 15 16 21 23 23 23 23 23 22 22 21 20 19 20 19 17 16 13 15 14 13 9 16 23 20 18 17 19 13 12 12 14 13 18 19
29 29 29 30 30 25 17 16 17 17 15 17 19 22 24 24 21 22 22 21 21 21 21 19 20 17 16 19 16 16 9 15 20 26 22 17 17 14 9 12 15 14 16 22
28 29 29 29 29 24 17 17 17 17 20 19 17 19 20 22 22 20 20 20 20 21 23 22 22 19 21 18 16 16 14 17 19 28 26 23 20 13 8 10 12 16 15 15
28 28 28 29 29 23 16 17 18 17 17 19 20 21 22 21 21 21 22 21 23 21 22 23 21 24 22 20 20 17 18 18 19 26 22 18 21 15 13 18 15 21 18 22
27 27 27 27 27 21 16 17 16 18 19 20 20 22 21 20 21 21 20 21 23 23 22 26 30 31 30 26 24 22 20 20 21 26 22 18 23 16 10 13 13 16 17 23
25 26 26 26 25 21 17 17 18 19 22 22 22 21 21 21 21 23 20 22 22 21 28 30 25 26 28 25 25 25 23 23 23 25 21 23 20 19 16 14 15 11 21 24
25 25 25 25 24 23 18 18 18 19 22 22 24 23 23 23 22 23 24 23 21 25 25 25 25 26 26 25 23 20 20 23 26 27 25 25 19 16 14 14 13 14 17 21
24 24 24 24 23 23 18 18 18 19 22 23 22 24 24 25 25 25 24 23 24 22 22 24 29 29 25 24 21 21 19 22 25 24 29 29 23 16 18 18 19 16 18 19
23 23 23 23 23 22 19 18 18 18 22 21 20 23 24 21 23 25 24 24 23 21 23 26 26 27 23 26 23 21 22 24 25 28 30 28 21 22 17 18 22 20 21 20
22 22 22 22 22 22 21 17 19 19 21 23 21 22 23 21 21 24 21 22 22 24 26 26 25 26 24 25 22 22 23 24 26 25 30 33 19 19 20 22 22 22 19 16
23 22 22 21 22 22 21 18 19 20 20 21 19 22 24 23 21 20 20 20 20 20 24 24 23 25 24 25 27 21 24 23 26 24 25 20 20 24 24 26 27 24 19 11
23 22 22 21 22 22 21 20 19 18 19 20 19 18 17 20 26 20 19 18 18 18 18 20 23 26 23 27 26 24 22 19 23 23 21 23 23 22 21 24 25 24 18 7
23 22 22 22 22 21 20 19 16 17 17 17 15 16 18 15 14 16 18 17 16 17 19 20 22 24 21 25 25 25 24 22 25 27 27 26 23 21 22 21 20 16 11 9
23 23 22 22 21 21 19 18 17 17 16 16 17 18 13 15 13 14 15 18 19 19 21 21 23 22 23 23 25 27 23 25 27 26 24 22 22 19 20 19 16 14 11 10
24 23 23 22 21 19 17 16 15 16 16 16 14 16 14 15 13 11 12 12 16 19 20 21 21 21 22 26 27 23 22 24 26 27 28 25 23 18 18 18 15 14 12 10
24 24 23 22 20 17 16 15 16 12 15 16 16 15 15 16 13 13 12 11 14 16 19 21 22 21 22 26 29 23 24 25 24 21 22 23 21 21 18 16 13 11 10 9
24 24 24 21 18 16 17 16 9 11 16 16 17 17 15 15 14 14 13 13 15 16 18 18 21 20 21 27 25 26 24 28 25 21 20 20 19 18 16 14 13 12 11 10
23 22 17 13 15 16 16 16 9 14 16 16 17 16 14 17 14 14 13 14 16 16 18 18 17 19 24 21 24 25 25 25 27 26 22 17 18 18 17 17 17 15 14 10
18 17 17 16 16 17 14 17 16 17 16 16 17 15 15 15 15 13 15 14 16 18 16 14 17 21 17 19 21 23 25 26 27 26 24 23 20 18 20 20 20 17 16 12
15 17 17 16 17 16 17 18 18 17 18 15 15 15 16 14 15 15 15 16 15 17 16 15 17 19 17 20 21 23 24 26 27 28 26 28 29 25 23 23 21 19 17 15
18 17 17 16 17 17 19 19 18 19 17 14 14 14 12 14 14 15 15 15 15 15 12 13 16 12 14 20 24 25 27 28 29 29 30 30 31 29 25 23 22 20 19 17
15 17 17 17 17 19 20 19 18 18 16 14 15 15 13 13 13 13 15 18 18 18 17 16 4 16 22 24 26 26 27 28 29 29 30 31 32 30 28 26 22 16 15 13
18 18 20 19 19 19 17 16 14 14 17 17 17 14 13 14 14 18 18 18 17 15 13 12 21 24 25 27 27 28 28 28 29 29 27 28 28 26 21 20 18 15 12 10
18 18 20 20 18 17 17 17 15 14 16 17 15 13 14 16 19 18 18 18 18 14 11 8 9 17 22 27 29 29 28 27 28 29 28 26 24 19 16 15 14 12 8 3
18 19 19 18 17 17 15 13 13 16 17 17 18 8 19 20 19 19 20 19 9 15 13 16 21 18 20 16 24 28 28 28 27 26 26 20 11 9 9 10 9 8 6 4
18 17 17 18 19 19 16 16 16 18 18 18 17 18 20 18 19 19 19 17 18 18 18 19 18 18 19 19 20 21 23 23 22 16 9 5 4 4 6 8 8 6 6 7
Wind_Direction
320 320 321 320 318 315 315 294 277 286 283 261 257 254 257 263 260 268 271 274 273 276 281 283 282 280 290 304 312 302 295 300 286 291 302 302 306 297 313 303 310 311 313 322
320 321 321 322 321 320 305 294 284 284 281 261 256 260 259 263 263 266 269 272 277 281 278 282 286 290 299 304 306 304 302 298 286 292 293 294 295 299 304 315 324 314 305 311
323 322 322 323 322 318 309 293 278 277 281 279 265 260 261 260 271 270 272 275 279 278 278 285 282 286 290 295 299 301 301 303 291 277 286 298 295 293 297 309 315 323 311 306
324 324 323 324 322 315 307 294 284 279 266 267 271 268 266 263 265 274 277 274 276 275 273 276 275 285 281 290 297 297 294 302 297 276 280 282 290 294 295 312 325 320 328 324
325 326 325 326 324 315 311 290 283 283 278 272 267 269 267 267 268 270 270 272 276 276 273 273 273 274 276 283 286 294 293 299 300 279 288 293 286 287 285 295 308 303 316 308
323 325 327 329 329 323 312 302 296 283 277 272 269 265 267 269 272 273 274 278 274 274 275 275 270 268 270 275 279 283 288 291 289 278 289 297 285 288 284 294 302 306 312 300
324 325 326 330 332 334 319 309 295 283 272 271 269 269 271 268 271 269 274 280 275 278 283 277 277 273 272 276 276 273 279 284 283 280 284 281 294 294 293 295 299 310 303 296
321 323 325 329 330 329 325 315 300 288 276 274 270 269 268 271 274 272 272 277 282 287 285 275 271 272 273 274 273 274 275 278 276 274 273 281 288 293 293 296 301 311 316 311
316 319 323 325 328 327 322 321 312 296 282 276 275 269 270 268 269 271 274 279 283 284 282 273 264 264 270 272 274 275 273 275 274 277 268 269 277 288 290 294 295 307 315 319
311 317 320 323 326 332 326 320 316 304 287 283 277 270 269 273 271 270 274 277 276 280 273 270 268 267 273 269 272 271 266 268 267 269 268 273 280 280 290 285 295 301 309 316
304 311 316 318 321 326 325 321 319 307 292 283 279 276 270 272 272 269 277 275 274 271 266 268 270 271 272 272 274 274 268 265 265 269 267 263 288 283 276 288 292 304 318 329
299 307 309 310 313 316 328 323 320 312 296 289 290 280 274 270 273 275 279 277 280 278 270 269 273 272 274 271 267 277 271 272 269 269 272 290 292 282 287 283 285 299 317 334
294 298 299 302 305 307 310 313 317 317 301 291 288 285 286 275 259 270 275 280 282 284 287 279 273 271 276 269 269 273 276 281 276 278 282 285 288 291 294 292 289 293 304 322
288 290 292 294 295 295 296 304 323 315 306 289 291 296 288 284 275 269 268 287 291 290 289 284 278 274 280 273 276 273 276 278 276 278 283 288 288 289 294 298 300 303 309 311
284 284 286 286 287 287 291 295 301 282 290 284 278 274 289 279 280 279 280 274 279 289 285 281 277 283 282 280 278 272 279 276 273 275 287 288 292 292 298 299 300 302 303 306
279 279 279 279 282 285 289 294 293 277 274 274 277 264 270 275 288 294 296 293 283 288 288 285 285 286 282 277 272 282 285 287 283 278 286 283 292 295 296 296 299 302 302 306
273 273 272 272 275 281 283 287 286 334 276 256 264 271 276 276 290 299 300 303 303 299 296 288 285 284 286 277 271 280 283 287 290 291 287 281 285 285 295 298 301 305 308 307
269 266 262 262 269 273 271 278 352 352 283 270 269 270 274 291 293 298 305 306 306 307 304 302 290 290 283 277 278 282 279 276 278 290 291 289 289 287 289 291 296 298 304 302
269 262 263 280 275 273 280 280 345 298 280 271 272 269 283 290 304 309 311 311 308 317 305 304 304 290 280 285 283 282 282 276 276 282 287 287 287 285 286 282 284 291 296 300
260 259 259 262 272 272 280 276 277 273 282 283 264 285 287 300 307 313 314 320 314 311 317 329 305 296 298 296 294 289 284 277 275 277 276 275 284 287 286 281 280 281 275 288
260 254 256 269 270 274 265 254 252 267 261 288 286 292 295 327 310 317 326 324 329 320 323 318 316 308 306 303 296 293 285 279 276 273 271 266 266 277 282 279 280 278 278 286
254 256 262 263 263 261 252 250 259 255 265 299 312 327 355 345 350 334 337 331 336 334 351 335 324 342 337 308 291 287 282 274 271 268 266 267 265 269 277 282 280 281 280 280
258 251 251 252 255 246 244 247 256 256 273 309 316 322 357 16 14 359 332 279 208 215 186 184 295 329 311 290 281 278 273 263 261 262 264 266 266 268 267 273 279 284 285 281
240 238 235 241 243 245 254 261 284 299 277 282 296 339 1 355 353 258 238 215 203 174 154 144 295 281 273 279 276 268 263 266 256 254 261 262 266 267 273 280 285 288 286 279
233 236 231 235 245 246 256 262 274 295 284 291 334 351 334 280 244 233 232 239 212 169 138 140 35 255 249 257 267 258 251 261 251 254 261 271 270 271 277 283 292 293 297 278
232 232 231 238 242 244 260 273 283 279 274 252 254 65 255 240 238 230 235 252 145 189 208 243 264 255 252 227 243 253 248 252 256 258 265 277 291 284 290 304 309 309 315 302
231 233 242 241 240 239 253 264 266 266 253 262 216 198 229 237 226 234 216 201 231 247 250 258 257 256 252 239 227 227 241 257 261 286 305 323 344 342 333 325 323 329 315 308